• In Romania
  • List of Countries
  • For 7 days
  • Water Temperature
  • Satellite Maps
  • Weather Map
  • Weather Widgets
  • user-avatar
    Login

    Hourly Weather Gorodok

    Today, 16 July, Monday

    Time Temperature Precipitation Wind Pressure Humidity
    00:00 +20°C° 1.6 mm 3 mps 737 mmHg 92%
    01:00 +20°C° 0.5 mm 3 mps 737 mmHg 92%
    02:00 +20°C° 0.5 mm 3 mps 737 mmHg 93%
    03:00 +19°C° 0.5 mm 3 mps 737 mmHg 93%
    04:00 +19°C° 0 mm 3 mps 737 mmHg 93%
    05:00 +20°C° 0 mm 3 mps 737 mmHg 93%
    06:00 +20°C° 0 mm 4 mps 737 mmHg 92%
    07:00 +21°C° 0.2 mm 4 mps 737 mmHg 89%
    08:00 +22°C° 0.2 mm 5 mps 737 mmHg 86%
    09:00 +25°C° 0.2 mm 5 mps 737 mmHg 83%
    10:00 +26°C° 0.5 mm 5 mps 737 mmHg 79%
    11:00 +27°C° 0.5 mm 5 mps 736 mmHg 75%
    12:00 +27°C° 0.5 mm 5 mps 736 mmHg 71%
    13:00 +28°C° 0.4 mm 5 mps 736 mmHg 70%
    14:00 +28°C° 0.4 mm 5 mps 736 mmHg 69%
    15:00 +28°C° 0.4 mm 5 mps 735 mmHg 68%
    16:00 +28°C° 0.6 mm 5 mps 735 mmHg 73%
    17:00 +27°C° 0.6 mm 4 mps 735 mmHg 77%
    18:00 +27°C° 0.6 mm 4 mps 735 mmHg 81%
    19:00 +26°C° 0.3 mm 4 mps 735 mmHg 83%
    20:00 +23°C° 0.3 mm 4 mps 735 mmHg 85%
    21:00 +22°C° 0.3 mm 4 mps 735 mmHg 88%
    22:00 +22°C° 0.1 mm 4 mps 734 mmHg 89%
    23:00 +21°C° 0.1 mm 4 mps 734 mmHg 90%

    Tomorrow, 17 July, Tuesday

    Time Temperature Precipitation Wind Pressure Humidity
    00:00 +21°C° 0.1 mm 4 mps 734 mmHg 92%
    01:00 +21°C° 0 mm 4 mps 734 mmHg 93%
    02:00 +20°C° 0 mm 4 mps 734 mmHg 93%
    03:00 +20°C° 0 mm 5 mps 734 mmHg 94%
    04:00 +20°C° 0.3 mm 5 mps 734 mmHg 94%
    05:00 +21°C° 0.3 mm 5 mps 733 mmHg 93%
    06:00 +21°C° 0.3 mm 6 mps 733 mmHg 93%
    07:00 +22°C° 0 mm 6 mps 733 mmHg 90%
    08:00 +23°C° 0 mm 6 mps 733 mmHg 87%
    09:00 +24°C° 0 mm 6 mps 733 mmHg 84%
    10:00 +24°C° 0.3 mm 6 mps 733 mmHg 84%
    11:00 +24°C° 0.3 mm 6 mps 733 mmHg 85%
    12:00 +24°C° 0.3 mm 6 mps 732 mmHg 85%
    13:00 +24°C° 0.5 mm 6 mps 732 mmHg 85%
    14:00 +24°C° 0.5 mm 6 mps 732 mmHg 85%
    15:00 +23°C° 0.5 mm 5 mps 732 mmHg 86%
    16:00 +23°C° 0.4 mm 5 mps 732 mmHg 87%
    17:00 +23°C° 0.4 mm 5 mps 732 mmHg 88%
    18:00 +22°C° 0.4 mm 4 mps 732 mmHg 90%
    19:00 +21°C° 0.4 mm 4 mps 732 mmHg 92%
    20:00 +21°C° 0.4 mm 4 mps 732 mmHg 94%
    21:00 +20°C° 0.4 mm 4 mps 732 mmHg 96%
    22:00 +20°C° 0.8 mm 4 mps 732 mmHg 96%
    23:00 +20°C° 0.8 mm 3 mps 732 mmHg 97%

    Day after tomorrow, 18 July, Wednesday

    Time Temperature Precipitation Wind Pressure Humidity
    00:00 +20°C° 0.8 mm 3 mps 732 mmHg 97%
    01:00 +20°C° 1 mm 3 mps 732 mmHg 97%
    02:00 +20°C° 1 mm 3 mps 732 mmHg 97%
    03:00 +20°C° 1 mm 3 mps 732 mmHg 97%
    04:00 +19°C° 1 mm 3 mps 732 mmHg 97%
    05:00 +19°C° 1 mm 3 mps 732 mmHg 97%
    06:00 +19°C° 1 mm 3 mps 732 mmHg 97%
    07:00 +19°C° 1.2 mm 3 mps 732 mmHg 96%
    08:00 +20°C° 1.2 mm 3 mps 732 mmHg 96%
    09:00 +20°C° 1.2 mm 3 mps 732 mmHg 95%
    10:00 +20°C° 0.7 mm 3 mps 733 mmHg 92%
    11:00 +21°C° 0.7 mm 3 mps 733 mmHg 89%
    12:00 +22°C° 0.7 mm 3 mps 733 mmHg 86%
    13:00 +22°C° 0.2 mm 3 mps 733 mmHg 82%
    14:00 +24°C° 0.2 mm 2 mps 733 mmHg 77%
    15:00 +25°C° 0.2 mm 2 mps 733 mmHg 72%
    16:00 +25°C° 0.4 mm 2 mps 733 mmHg 74%
    17:00 +25°C° 0.4 mm 2 mps 733 mmHg 76%
    18:00 +25°C° 0.4 mm 2 mps 734 mmHg 77%
    19:00 +24°C° 0.2 mm 2 mps 734 mmHg 81%
    20:00 +23°C° 0.2 mm 2 mps 734 mmHg 85%
    21:00 +20°C° 0.2 mm 2 mps 734 mmHg 88%
    22:00 +20°C° 0 mm 2 mps 734 mmHg 90%
    23:00 +19°C° 0 mm 2 mps 734 mmHg 91%

    19 July, Thursday

    Time Temperature Precipitation Wind Pressure Humidity
    00:00 +19°C° 0 mm 2 mps 735 mmHg 93%
    01:00 +19°C° 0 mm 2 mps 735 mmHg 94%
    02:00 +18°C° 0 mm 2 mps 735 mmHg 94%
    03:00 +18°C° 0 mm 2 mps 735 mmHg 95%
    04:00 +18°C° 0.1 mm 2 mps 735 mmHg 95%
    05:00 +18°C° 0.1 mm 2 mps 735 mmHg 94%
    06:00 +18°C° 0.1 mm 2 mps 736 mmHg 94%
    07:00 +19°C° 0.2 mm 3 mps 736 mmHg 91%
    08:00 +20°C° 0.2 mm 4 mps 736 mmHg 88%
    09:00 +21°C° 0.2 mm 4 mps 736 mmHg 85%
    10:00 +22°C° 0.2 mm 4 mps 736 mmHg 82%
    11:00 +23°C° 0.2 mm 5 mps 736 mmHg 79%
    12:00 +23°C° 0.2 mm 5 mps 736 mmHg 75%
    13:00 +25°C° 0.6 mm 5 mps 736 mmHg 76%
    14:00 +25°C° 0.6 mm 5 mps 736 mmHg 77%
    15:00 +25°C° 0.6 mm 5 mps 736 mmHg 78%
    16:00 +25°C° 0.3 mm 5 mps 736 mmHg 79%
    17:00 +23°C° 0.3 mm 4 mps 736 mmHg 81%
    18:00 +23°C° 0.3 mm 4 mps 736 mmHg 83%
    19:00 +22°C° 0.3 mm 4 mps 736 mmHg 85%
    20:00 +21°C° 0.3 mm 4 mps 736 mmHg 87%
    21:00 +21°C° 0.3 mm 4 mps 736 mmHg 90%
    22:00 +21°C° 0.3 mm 4 mps 736 mmHg 91%
    23:00 +20°C° 0.3 mm 4 mps 736 mmHg 91%

    20 July, Friday

    Time Temperature Precipitation Wind Pressure Humidity
    00:00 +20°C° 0.3 mm 4 mps 736 mmHg 92%
    01:00 +20°C° 0.2 mm 4 mps 736 mmHg 93%
    02:00 +20°C° 0.2 mm 4 mps 736 mmHg 94%
    03:00 +20°C° 0.2 mm 4 mps 736 mmHg 95%
    04:00 +20°C° 0.1 mm 4 mps 736 mmHg 95%
    05:00 +20°C° 0.1 mm 4 mps 736 mmHg 95%
    06:00 +20°C° 0.1 mm 3 mps 736 mmHg 95%
    07:00 +21°C° 0.2 mm 4 mps 736 mmHg 92%
    08:00 +23°C° 0.2 mm 4 mps 736 mmHg 88%
    09:00 +25°C° 0.2 mm 4 mps 736 mmHg 84%
    10:00 +26°C° 0.3 mm 4 mps 736 mmHg 80%
    11:00 +27°C° 0.3 mm 4 mps 736 mmHg 75%
    12:00 +28°C° 0.3 mm 4 mps 736 mmHg 71%
    13:00 +28°C° 0.6 mm 4 mps 736 mmHg 70%
    14:00 +28°C° 0.6 mm 4 mps 736 mmHg 70%
    15:00 +29°C° 0.6 mm 4 mps 736 mmHg 70%
    16:00 +28°C° 0.7 mm 4 mps 736 mmHg 73%
    17:00 +28°C° 0.7 mm 3 mps 736 mmHg 76%
    18:00 +27°C° 0.7 mm 3 mps 736 mmHg 79%
    19:00 +26°C° 0.1 mm 3 mps 736 mmHg 82%
    20:00 +25°C° 0.1 mm 3 mps 736 mmHg 85%
    21:00 +23°C° 0.1 mm 2 mps 736 mmHg 89%
    22:00 +23°C° 0 mm 2 mps 736 mmHg 89%
    23:00 +21°C° 0 mm 2 mps 736 mmHg 90%

    21 July, Saturday

    Time Temperature Precipitation Wind Pressure Humidity
    00:00 +21°C° 0 mm 2 mps 736 mmHg 91%
    01:00 +20°C° 0 mm 2 mps 737 mmHg 92%
    02:00 +20°C° 0 mm 2 mps 737 mmHg 92%
    03:00 +20°C° 0 mm 3 mps 737 mmHg 93%
    04:00 +20°C° 0 mm 2 mps 737 mmHg 93%
    05:00 +20°C° 0 mm 2 mps 737 mmHg 93%
    06:00 +20°C° 0 mm 2 mps 737 mmHg 93%
    07:00 +22°C° 0.2 mm 3 mps 737 mmHg 89%
    08:00 +24°C° 0.2 mm 3 mps 737 mmHg 85%
    09:00 +26°C° 0.2 mm 3 mps 737 mmHg 81%
    10:00 +27°C° 0.7 mm 3 mps 737 mmHg 76%
    11:00 +28°C° 0.7 mm 3 mps 737 mmHg 72%
    12:00 +29°C° 0.7 mm 4 mps 737 mmHg 67%
    13:00 +29°C° 0.6 mm 4 mps 737 mmHg 66%
    14:00 +29°C° 0.6 mm 4 mps 737 mmHg 66%
    15:00 +29°C° 0.6 mm 4 mps 737 mmHg 66%
    16:00 +29°C° 0.2 mm 4 mps 737 mmHg 70%
    17:00 +29°C° 0.2 mm 3 mps 737 mmHg 73%
    18:00 +28°C° 0.2 mm 3 mps 737 mmHg 77%
    19:00 +27°C° 0.1 mm 3 mps 737 mmHg 81%
    20:00 +25°C° 0.1 mm 3 mps 737 mmHg 84%
    21:00 +24°C° 0.1 mm 3 mps 737 mmHg 87%
    22:00 +22°C° 0 mm 3 mps 737 mmHg 88%
    23:00 +22°C° 0 mm 3 mps 737 mmHg 89%
    Show more